Previsão horária em Caucaia

Hoje, 25 Julho, Domingo

Tempo Temperatura Precipitação Vento Pressão Humidade
00:00 +25°C° 0 mm 3 m/s 758 mmHg 88%
01:00 +25°C° 0 mm 3 m/s 758 mmHg 87%
02:00 +25°C° 0 mm 4 m/s 757 mmHg 87%
03:00 +23°C° 0 mm 4 m/s 757 mmHg 87%
04:00 +23°C° 0 mm 4 m/s 757 mmHg 80%
05:00 +23°C° 0 mm 4 m/s 758 mmHg 73%
06:00 +23°C° 0 mm 5 m/s 758 mmHg 66%
07:00 +26°C° 0 mm 5 m/s 758 mmHg 61%
08:00 +27°C° 0 mm 5 m/s 759 mmHg 56%
09:00 +29°C° 0 mm 6 m/s 759 mmHg 51%
10:00 +30°C° 0 mm 6 m/s 759 mmHg 48%
11:00 +33°C° 0 mm 6 m/s 758 mmHg 44%
12:00 +34°C° 0 mm 5 m/s 758 mmHg 41%
13:00 +34°C° 0 mm 5 m/s 757 mmHg 42%
14:00 +34°C° 0 mm 5 m/s 756 mmHg 44%
15:00 +34°C° 0 mm 5 m/s 755 mmHg 46%
16:00 +32°C° 0 mm 5 m/s 756 mmHg 55%
17:00 +29°C° 0 mm 5 m/s 756 mmHg 64%
18:00 +28°C° 0 mm 4 m/s 757 mmHg 74%
19:00 +27°C° 0 mm 4 m/s 757 mmHg 77%
20:00 +27°C° 0 mm 4 m/s 758 mmHg 80%
21:00 +27°C° 0 mm 4 m/s 758 mmHg 83%
22:00 +27°C° 0 mm 4 m/s 758 mmHg 84%
23:00 +27°C° 0 mm 4 m/s 758 mmHg 84%

Amanhã, 26 Julho, Segunda-feira

Tempo Temperatura Precipitação Vento Pressão Humidade
00:00 +27°C° 0 mm 5 m/s 758 mmHg 84%
01:00 +26°C° 0.2 mm 5 m/s 758 mmHg 84%
02:00 +26°C° 0.2 mm 5 m/s 757 mmHg 84%
03:00 +26°C° 0.2 mm 5 m/s 757 mmHg 84%
04:00 +25°C° 0 mm 5 m/s 757 mmHg 83%
05:00 +25°C° 0 mm 5 m/s 758 mmHg 81%
06:00 +25°C° 0 mm 5 m/s 758 mmHg 80%
07:00 +26°C° 0 mm 5 m/s 758 mmHg 74%
08:00 +28°C° 0 mm 6 m/s 759 mmHg 67%
09:00 +29°C° 0 mm 6 m/s 759 mmHg 61%
10:00 +30°C° 0 mm 6 m/s 759 mmHg 58%
11:00 +32°C° 0 mm 6 m/s 758 mmHg 54%
12:00 +33°C° 0 mm 6 m/s 758 mmHg 51%
13:00 +33°C° 0 mm 6 m/s 757 mmHg 52%
14:00 +33°C° 0 mm 6 m/s 757 mmHg 54%
15:00 +33°C° 0 mm 5 m/s 756 mmHg 55%
16:00 +30°C° 0.1 mm 5 m/s 757 mmHg 63%
17:00 +29°C° 0.1 mm 4 m/s 757 mmHg 70%
18:00 +27°C° 0.1 mm 4 m/s 757 mmHg 77%
19:00 +27°C° 0.2 mm 4 m/s 758 mmHg 80%
20:00 +26°C° 0.2 mm 4 m/s 758 mmHg 82%
21:00 +26°C° 0.2 mm 3 m/s 759 mmHg 84%
22:00 +26°C° 0.1 mm 4 m/s 759 mmHg 83%
23:00 +26°C° 0.1 mm 4 m/s 758 mmHg 83%

Depois de amanhã, 27 Julho, Terça-feira

Tempo Temperatura Precipitação Vento Pressão Humidade
00:00 +26°C° 0.1 mm 4 m/s 758 mmHg 82%
01:00 +26°C° 0.1 mm 4 m/s 758 mmHg 83%
02:00 +25°C° 0.1 mm 4 m/s 757 mmHg 84%
03:00 +25°C° 0.1 mm 4 m/s 757 mmHg 85%
04:00 +25°C° 0 mm 4 m/s 757 mmHg 85%
05:00 +25°C° 0 mm 4 m/s 758 mmHg 84%
06:00 +23°C° 0 mm 4 m/s 758 mmHg 83%
07:00 +26°C° 0 mm 5 m/s 758 mmHg 75%
08:00 +28°C° 0 mm 5 m/s 759 mmHg 67%
09:00 +30°C° 0 mm 5 m/s 759 mmHg 59%
10:00 +32°C° 0 mm 5 m/s 759 mmHg 55%
11:00 +33°C° 0 mm 6 m/s 758 mmHg 50%
12:00 +34°C° 0 mm 6 m/s 758 mmHg 46%
13:00 +34°C° 0 mm 6 m/s 757 mmHg 48%
14:00 +34°C° 0 mm 6 m/s 757 mmHg 49%
15:00 +33°C° 0 mm 5 m/s 756 mmHg 51%
16:00 +32°C° 0 mm 5 m/s 756 mmHg 59%
17:00 +29°C° 0 mm 4 m/s 756 mmHg 66%
18:00 +28°C° 0 mm 3 m/s 757 mmHg 74%
19:00 +27°C° 0 mm 3 m/s 757 mmHg 79%
20:00 +27°C° 0 mm 3 m/s 757 mmHg 83%
21:00 +26°C° 0 mm 3 m/s 758 mmHg 87%
22:00 +26°C° 0.2 mm 4 m/s 758 mmHg 88%
23:00 +26°C° 0.2 mm 4 m/s 758 mmHg 89%

28 Julho, Quarta-feira

Tempo Temperatura Precipitação Vento Pressão Humidade
00:00 +26°C° 0.2 mm 4 m/s 757 mmHg 90%
01:00 +26°C° 0.1 mm 4 m/s 757 mmHg 90%
02:00 +26°C° 0.1 mm 4 m/s 757 mmHg 90%
03:00 +26°C° 0.1 mm 4 m/s 756 mmHg 91%
04:00 +26°C° 0.1 mm 4 m/s 757 mmHg 91%
05:00 +26°C° 0.1 mm 4 m/s 757 mmHg 91%
06:00 +26°C° 0.1 mm 4 m/s 757 mmHg 92%
07:00 +27°C° 0.1 mm 4 m/s 758 mmHg 85%
08:00 +28°C° 0.1 mm 5 m/s 758 mmHg 78%
09:00 +29°C° 0.1 mm 5 m/s 758 mmHg 70%
10:00 +32°C° 0 mm 5 m/s 758 mmHg 64%
11:00 +33°C° 0 mm 5 m/s 757 mmHg 57%
12:00 +34°C° 0 mm 6 m/s 757 mmHg 50%
13:00 +34°C° 0 mm 6 m/s 756 mmHg 52%
14:00 +34°C° 0 mm 5 m/s 756 mmHg 54%
15:00 +33°C° 0 mm 5 m/s 755 mmHg 55%
16:00 +32°C° 0 mm 5 m/s 756 mmHg 63%
17:00 +29°C° 0 mm 4 m/s 756 mmHg 71%
18:00 +28°C° 0 mm 4 m/s 756 mmHg 78%
19:00 +28°C° 0 mm 4 m/s 757 mmHg 82%
20:00 +27°C° 0 mm 4 m/s 757 mmHg 85%
21:00 +27°C° 0 mm 4 m/s 757 mmHg 88%
22:00 +27°C° 0 mm 4 m/s 757 mmHg 89%
23:00 +27°C° 0 mm 4 m/s 757 mmHg 90%

29 Julho, Quinta-feira

Tempo Temperatura Precipitação Vento Pressão Humidade
00:00 +27°C° 0 mm 4 m/s 757 mmHg 91%
01:00 +27°C° 0.2 mm 4 m/s 757 mmHg 91%
02:00 +26°C° 0.2 mm 4 m/s 757 mmHg 92%
03:00 +26°C° 0.2 mm 4 m/s 757 mmHg 92%
04:00 +26°C° 0.3 mm 4 m/s 757 mmHg 92%
05:00 +26°C° 0.3 mm 4 m/s 757 mmHg 93%
06:00 +26°C° 0.3 mm 3 m/s 757 mmHg 93%
07:00 +27°C° 0.2 mm 4 m/s 758 mmHg 86%
08:00 +28°C° 0.2 mm 4 m/s 758 mmHg 78%
09:00 +29°C° 0.2 mm 4 m/s 759 mmHg 71%
10:00 +32°C° 0.2 mm 5 m/s 758 mmHg 67%
11:00 +33°C° 0.2 mm 5 m/s 758 mmHg 62%
12:00 +34°C° 0.2 mm 5 m/s 757 mmHg 58%
13:00 +33°C° 0.2 mm 5 m/s 757 mmHg 58%
14:00 +33°C° 0.2 mm 5 m/s 757 mmHg 59%
15:00 +33°C° 0.2 mm 5 m/s 756 mmHg 59%
16:00 +32°C° 0.1 mm 4 m/s 757 mmHg 66%
17:00 +29°C° 0.1 mm 4 m/s 757 mmHg 73%
18:00 +28°C° 0.1 mm 3 m/s 757 mmHg 80%
19:00 +28°C° 0 mm 3 m/s 758 mmHg 83%
20:00 +27°C° 0 mm 3 m/s 758 mmHg 85%
21:00 +27°C° 0 mm 3 m/s 758 mmHg 88%
22:00 +27°C° 0.5 mm 3 m/s 758 mmHg 89%
23:00 +26°C° 0.5 mm 3 m/s 758 mmHg 91%

30 Julho, Sexta-feira

Tempo Temperatura Precipitação Vento Pressão Humidade
00:00 +26°C° 0.5 mm 3 m/s 758 mmHg 92%
01:00 +26°C° 0.5 mm 3 m/s 758 mmHg 92%
02:00 +26°C° 0.5 mm 3 m/s 758 mmHg 93%
03:00 +26°C° 0.5 mm 2 m/s 757 mmHg 93%
04:00 +26°C° 0.9 mm 2 m/s 758 mmHg 93%
05:00 +26°C° 0.9 mm 2 m/s 758 mmHg 93%
06:00 +26°C° 0.9 mm 2 m/s 758 mmHg 93%
07:00 +27°C° 1.2 mm 2 m/s 759 mmHg 86%
08:00 +28°C° 1.2 mm 3 m/s 759 mmHg 80%
09:00 +30°C° 1.2 mm 3 m/s 759 mmHg 74%
10:00 +30°C° 0.8 mm 3 m/s 759 mmHg 73%
11:00 +30°C° 0.8 mm 4 m/s 759 mmHg 72%
12:00 +32°C° 0.8 mm 4 m/s 758 mmHg 72%
13:00 +30°C° 1.1 mm 4 m/s 758 mmHg 71%
14:00 +30°C° 1.1 mm 4 m/s 758 mmHg 71%
15:00 +30°C° 1.1 mm 4 m/s 757 mmHg 70%
16:00 +29°C° 0.6 mm 3 m/s 757 mmHg 75%
17:00 +28°C° 0.6 mm 3 m/s 757 mmHg 80%
18:00 +27°C° 0.6 mm 2 m/s 758 mmHg 85%
19:00 +27°C° 0.1 mm 2 m/s 758 mmHg 87%
20:00 +26°C° 0.1 mm 3 m/s 758 mmHg 90%
21:00 +26°C° 0.1 mm 3 m/s 759 mmHg 92%
22:00 +26°C° 0.2 mm 3 m/s 759 mmHg 92%
23:00 +26°C° 0.2 mm 4 m/s 759 mmHg 92%
Mostrar mais

Necessitamos do seu Consentimento

A Meteoprog e os seus Fornecedores de Serviços podem armazenar e aceder a dados pessoais como cookies, identificadores do dispositivo ou outras tecnologias semelhantes existentes no seu dispositivo e processar estes dados para personalizar conteúdos e anúncios, assim como funcionalidades nas redes sociais e análise de tráfego.

  • Armazenar e/ou aceder a informações no seu dispositivo

    Os cookies, identificadores do dispositivo ou outras informações podem ser armazenados ou acedidos no seu dispositivo, para os fins acima indicados.

  • Anúncios e conteúdos personalizados, medição de anúncios e conteúdos, dados sobre o público-alvo e desenvolvimento de produtos

    Os anúncios e os conteúdos podem ser personalizados com base num perfil. Podem ser adicionados dados adicionais para uma maior personalização dos anúncios e dos conteúdos. A eficácia dos anúncios e dos conteúdos pode ser medida. Podem ser obtidas informações sobre o público que visualizou os anúncios e os conteúdos. Estes dados podem ser usados para desenvolver ou melhorar sistemas, softwares ou a experiência do utilizador.

Ao clicar em "Eu concordo”, permitirá o uso de cookies, identificadores do dispositivo e web beacons mencionados ou outras tecnologias semelhantes. As configurações do navegador do seu dispositivo podem ser alteradas.

Para certos fins, podem ser invocados interesses legítimos ao invés de consentimento. Pode ler mais informação sobre este assunto na nossa Política de Privacidade e Cookies.